Stevens Point, WI

11:19 AM CST on December 05, 2019 (GMT -0600)
Stevens Point Municipal

Weather History for KSTE - October, 2019

Change the Weather History Date:

Sunday, October 13, 2019

  Actual Average Record
Temperature  
Mean Temperature 35 °F -  
Max Temperature 38 °F 57 °F 83 °F (1956)
Min Temperature 32 °F 38 °F 21 °F (2018)
Degree Days  
Heating Degree Days 30    
Moisture  
Dew Point 31 °F    
Average Humidity 87    
Maximum Humidity 100    
Minimum Humidity 77    
Precipitation  
Precipitation 0.03 in - - ()
Sea Level Pressure  
Sea Level Pressure 29.74 in    
Wind  
Wind Speed 10 mph (WSW)    
Max Wind Speed 15 mph    
Max Gust Speed 25 mph    
Visibility 9 miles    
Events Rain , Snow    
Averages and records for this station are not official NWS values.
T = Trace of Precipitation, MM = Missing Value Source: NWS Daily Summary

Daily Weather History Graph

Daily Weather History Graph

Search for Another Location

Airport or City:

Astronomy

Oct. 13, 2019 Rise Set
Actual Time 7:10 AM CDT 6:17 PM CDT
Civil Twilight 6:41 AM CDT 6:46 PM CDT
Nautical Twilight 6:07 AM CDT 7:20 PM CDT
Astronomical Twilight 5:33 AM CDT 7:54 PM CDT
Moon 6:42 PM CDT (10/13) 6:41 AM CDT (10/13)
Length of Visible Light 12h 05m
Length of Day
11h 06m
Full, 100% of the Moon is Illuminated
Oct 13
Full
Oct 13
Full
Oct 21
Last Quarter
Oct 27
New
Nov 4
First Quarter

Hourly Weather History & Observations

Time (CDT) Temp. Windchill Dew Point Humidity Pressure Visibility Wind Dir Wind Speed Gust Speed Precip Events Conditions
12:15 AM 34.2 °F 26.2 °F 28.9 °F 81% 29.66 in 10.0 mi WSW 10.4 mph 20.7 mph N/A   Overcast
12:55 AM 34.2 °F 27.5 °F 28.8 °F 81% 29.65 in 10.0 mi WSW 8.1 mph 17.3 mph N/A   Overcast
1:15 AM 34.2 °F 25.7 °F 28.4 °F 79% 29.65 in 10.0 mi SW 11.5 mph 16.1 mph N/A   Overcast
1:35 AM 34.2 °F 26.2 °F 28.8 °F 81% 29.66 in 10.0 mi SW 10.4 mph 20.7 mph N/A   Overcast
1:55 AM 34.2 °F 26.2 °F 28.4 °F 79% 29.66 in 10.0 mi WSW 10.4 mph 20.7 mph N/A   Overcast
2:15 AM 34.2 °F 26.8 °F 28.2 °F 79% 29.66 in 10.0 mi WSW 9.2 mph - N/A   Overcast
2:35 AM 34.2 °F 24.8 °F 28.0 °F 78% 29.66 in 10.0 mi WSW 13.8 mph 18.4 mph N/A   Overcast
2:55 AM 34.2 °F 26.8 °F 27.9 °F 78% 29.66 in 10.0 mi WSW 9.2 mph 17.3 mph N/A   Overcast
3:15 AM 34.0 °F 26.6 °F 28.0 °F 79% 29.67 in 10.0 mi WSW 9.2 mph - N/A   Overcast
3:35 AM 33.8 °F 25.8 °F 28.0 °F 79% 29.67 in 10.0 mi WSW 10.4 mph - N/A   Overcast
3:55 AM 33.8 °F 27.7 °F 28.0 °F 79% 29.67 in 10.0 mi WSW 6.9 mph 16.1 mph N/A   Overcast
4:15 AM 33.8 °F 26.4 °F 28.2 °F 80% 29.67 in 10.0 mi WSW 9.2 mph - N/A   Overcast
4:35 AM 33.8 °F 26.4 °F 28.0 °F 79% 29.68 in 10.0 mi WSW 9.2 mph - N/A   Overcast
4:55 AM 33.8 °F 26.4 °F 28.0 °F 79% 29.67 in 10.0 mi WSW 9.2 mph - N/A   Overcast
5:15 AM 33.8 °F 26.4 °F 28.0 °F 79% 29.67 in 10.0 mi WSW 9.2 mph 16.1 mph N/A   Overcast
5:35 AM 33.8 °F 26.4 °F 27.9 °F 79% 29.67 in 10.0 mi SW 9.2 mph - N/A   Overcast
5:55 AM 33.8 °F 25.8 °F 27.7 °F 78% 29.67 in 10.0 mi SW 10.4 mph 16.1 mph N/A   Overcast
6:15 AM 33.8 °F 25.3 °F 27.5 °F 78% 29.68 in 10.0 mi SW 11.5 mph - N/A   Overcast
6:35 AM 33.8 °F 25.8 °F 27.1 °F 77% 29.68 in 10.0 mi SW 10.4 mph 17.3 mph N/A   Overcast
6:55 AM 33.8 °F 25.3 °F 27.1 °F 77% 29.68 in 10.0 mi SW 11.5 mph - N/A   Overcast
7:15 AM 33.8 °F 25.8 °F 27.3 °F 77% 29.69 in 10.0 mi SW 10.4 mph - N/A Snow Light Snow
7:35 AM 33.8 °F 25.3 °F 27.1 °F 77% 29.69 in 10.0 mi SW 11.5 mph 18.4 mph N/A   Overcast
7:55 AM 33.8 °F 25.3 °F 27.5 °F 78% 29.69 in 10.0 mi WSW 11.5 mph 19.6 mph N/A   Overcast
8:15 AM 33.8 °F 27.0 °F 28.4 °F 81% 29.69 in 10.0 mi WSW 8.1 mph 16.1 mph N/A Snow Light Snow
8:35 AM 33.1 °F 27.7 °F 29.7 °F 87% 29.69 in 4.0 mi SW 5.8 mph - N/A   Overcast
8:55 AM 32.5 °F 24.8 °F 31.5 °F 96% 29.69 in 3.0 mi SW 9.2 mph - N/A Rain Rain
9:15 AM 33.1 °F 25.5 °F 31.5 °F 94% 29.69 in 10.0 mi SW 9.2 mph 16.1 mph N/A Rain Light Rain
9:35 AM 34.0 °F 24.2 °F 30.9 °F 89% 29.69 in 10.0 mi SW 15.0 mph - N/A   Overcast
9:55 AM 34.7 °F 26.4 °F 29.8 °F 82% 29.69 in 10.0 mi WSW 11.5 mph - N/A   Overcast
10:15 AM 34.9 °F 26.2 °F 29.7 °F 81% 29.70 in 10.0 mi WSW 12.7 mph 16.1 mph N/A   Overcast
10:35 AM 34.7 °F 26.9 °F 29.3 °F 81% 29.71 in 10.0 mi WSW 10.4 mph 17.3 mph N/A Rain Light Rain
10:55 AM 35.1 °F 28.6 °F 30.0 °F 82% 29.71 in 10.0 mi WSW 8.1 mph - N/A Rain Light Rain
11:15 AM 34.5 °F 26.7 °F 31.3 °F 88% 29.71 in 10.0 mi WSW 10.4 mph 20.7 mph N/A Rain Heavy Rain
11:35 AM 32.0 °F 25.6 °F 32.0 °F 100% 29.72 in 1.5 mi WSW 6.9 mph - 0.01 in Rain Rain
11:55 AM 35.1 °F 28.6 °F 32.9 °F 92% 29.71 in 10.0 mi WSW 8.1 mph 16.1 mph 0.01 in   Overcast
12:35 PM 34.0 °F 24.2 °F 31.8 °F 92% 29.72 in 3.0 mi West 15.0 mph 23.0 mph N/A Rain Heavy Rain
12:55 PM 34.0 °F 24.2 °F 32.2 °F 93% 29.72 in 10.0 mi WSW 15.0 mph 19.6 mph 0.01 in Rain Light Rain
1:15 PM 36.3 °F 28.4 °F 32.5 °F 86% 29.72 in 10.0 mi West 11.5 mph 21.9 mph N/A   Overcast
1:35 PM 36.5 °F 28.2 °F 32.4 °F 85% 29.72 in 10.0 mi West 12.7 mph 17.3 mph N/A Rain Light Rain
1:55 PM 36.3 °F 27.1 °F 31.1 °F 81% 29.72 in 10.0 mi WSW 15.0 mph 18.4 mph N/A   Overcast
2:15 PM 32.7 °F 25.0 °F 31.1 °F 94% 29.74 in 2.5 mi West 9.2 mph 25.3 mph N/A Rain Heavy Rain
2:35 PM 34.9 °F 27.7 °F 33.1 °F 93% 29.74 in 10.0 mi West 9.2 mph 17.3 mph N/A   Overcast
2:55 PM 38.3 °F 31.4 °F 33.6 °F 83% 29.73 in 10.0 mi West 10.4 mph 17.3 mph N/A   Overcast
3:15 PM 37.4 °F 28.9 °F 32.0 °F 81% 29.74 in 10.0 mi WSW 13.8 mph 18.4 mph N/A   Overcast
3:35 PM 34.3 °F 27.0 °F 32.4 °F 92% 29.75 in 10.0 mi NNW 9.2 mph - N/A   Overcast
3:55 PM 34.0 °F 29.8 °F 32.4 °F 94% 29.76 in 5.0 mi WSW 4.6 mph - 0.01 in Rain Light Rain
4:15 PM 35.6 °F 32.8 °F 32.5 °F 89% 29.76 in 10.0 mi West 3.5 mph - N/A   Mostly Cloudy
4:35 PM 36.5 °F 28.2 °F 33.3 °F 88% 29.77 in 7.0 mi West 12.7 mph 17.3 mph N/A Rain Rain
4:55 PM 35.6 °F 29.2 °F 33.4 °F 92% 29.78 in 10.0 mi WSW 8.1 mph - N/A   Overcast
5:15 PM 36.9 °F 30.1 °F 32.0 °F 83% 29.78 in 10.0 mi WSW 9.2 mph - N/A   Mostly Cloudy
5:35 PM 37.4 °F 31.4 °F 32.0 °F 81% 29.79 in 10.0 mi WSW 8.1 mph 18.4 mph N/A   Mostly Cloudy
5:55 PM 35.6 °F 29.2 °F 32.0 °F 87% 29.79 in 10.0 mi WSW 8.1 mph - N/A   Scattered Clouds
6:15 PM 35.2 °F 28.1 °F 32.0 °F 88% 29.80 in 10.0 mi SW 9.2 mph - N/A   Scattered Clouds
6:35 PM 34.9 °F 27.1 °F 32.4 °F 91% 29.81 in 10.0 mi WSW 10.4 mph 16.1 mph N/A   Mostly Cloudy
6:55 PM 34.7 °F 28.1 °F 33.1 °F 94% 29.82 in 10.0 mi WSW 8.1 mph - N/A   Mostly Cloudy
7:15 PM 34.0 °F 26.0 °F 32.4 °F 94% 29.83 in 10.0 mi WSW 10.4 mph - N/A   Scattered Clouds
7:35 PM 33.4 °F 29.1 °F 32.0 °F 94% 29.83 in 10.0 mi West 4.6 mph - N/A   Scattered Clouds
7:55 PM 33.1 °F 27.7 °F 32.4 °F 97% 29.84 in 10.0 mi WSW 5.8 mph - N/A   Scattered Clouds
8:15 PM 32.4 °F 27.9 °F 32.4 °F 100% 29.84 in 10.0 mi SW 4.6 mph - N/A   Scattered Clouds
8:35 PM 32.9 °F 25.9 °F 32.9 °F 100% 29.85 in 10.0 mi WSW 8.1 mph - N/A   Clear
8:55 PM 33.1 °F 26.1 °F 32.2 °F 96% 29.86 in 10.0 mi WSW 8.1 mph - N/A   Clear
9:15 PM 33.1 °F 24.9 °F 32.2 °F 96% 29.86 in 10.0 mi WSW 10.4 mph - N/A   Clear
9:35 PM 33.3 °F 24.6 °F 32.4 °F 96% 29.86 in 10.0 mi WSW 11.5 mph 17.3 mph N/A   Scattered Clouds
9:55 PM 33.4 °F 25.4 °F 32.2 °F 95% 29.86 in 10.0 mi WSW 10.4 mph - N/A   Mostly Cloudy
10:15 PM 32.9 °F 25.9 °F 32.4 °F 98% 29.86 in 10.0 mi West 8.1 mph - N/A   Scattered Clouds
10:35 PM 32.9 °F 25.9 °F 32.5 °F 99% 29.87 in 10.0 mi WSW 8.1 mph - N/A   Mostly Cloudy
10:55 PM 32.2 °F 25.8 °F 32.2 °F 100% 29.87 in 10.0 mi WSW 6.9 mph - N/A   Scattered Clouds
11:15 PM 32.9 °F 26.7 °F 32.5 °F 99% 29.87 in 10.0 mi West 6.9 mph - N/A   Mostly Cloudy
11:35 PM 32.9 °F 25.9 °F 32.5 °F 99% 29.87 in 10.0 mi West 8.1 mph - N/A   Overcast
11:55 PM 32.9 °F 25.9 °F 32.5 °F 99% 29.87 in 10.0 mi WSW 8.1 mph - N/A   Overcast